RH
45 41 38 35 30 28 27 26 24 23 20 21 21 20 18 16 15 13 13 9 8 8 9 10 16 18 18 14 7 4 5 13 38 52 65 68 67 67 73 79 82 81 84
44 41 37 32 28 29 30 28 26 25 22 21 20 20 19 18 17 13 13 13 8 9 8 9 10 14 17 17 14 6 5 9 20 43 54 63 65 70 72 72 77 75 82
43 37 31 27 28 29 27 27 27 26 23 22 21 20 20 21 18 17 13 14 14 10 9 8 8 9 11 15 16 12 6 7 12 27 48 56 59 65 67 74 80 78 80
33 32 27 28 32 32 32 31 28 28 28 29 26 23 21 19 18 17 16 14 14 14 12 8 7 8 7 13 12 15 12 6 7 14 41 50 56 67 68 73 83 83 80
35 26 24 25 28 30 31 30 29 28 27 27 26 26 24 20 18 15 14 15 11 10 12 11 8 9 7 8 10 14 15 11 6 7 32 48 53 65 73 74 80 79 77
27 24 24 24 25 30 32 31 30 28 28 26 24 23 24 22 20 18 16 14 14 11 10 8 11 9 7 7 7 11 15 14 7 6 26 46 52 65 73 78 78 78 87
25 24 23 25 26 28 29 29 30 30 29 27 26 23 22 23 19 17 16 15 15 14 12 11 8 13 12 7 7 10 15 15 13 8 27 43 51 62 75 77 86 81 81
29 28 27 26 29 29 30 31 29 27 25 25 27 26 23 21 20 17 18 17 17 17 16 12 13 14 14 13 11 11 15 15 12 12 29 40 53 68 76 78 92 92 86
28 28 28 32 36 38 38 39 40 39 37 35 37 36 32 23 23 21 18 21 18 17 17 17 14 14 15 14 14 13 11 9 9 15 28 39 52 69 73 78 93 94 91
32 34 35 36 36 42 48 47 45 46 48 50 54 55 49 39 35 28 21 23 20 19 19 19 17 16 15 15 15 14 12 8 7 12 27 38 51 69 71 80 96 91 88
40 37 39 43 50 54 53 55 56 56 55 60 61 67 65 62 51 41 34 27 23 24 20 19 18 15 16 15 15 14 9 6 6 11 30 37 49 68 72 85 87 89 84
42 46 50 53 54 59 63 62 63 63 65 64 67 69 74 69 65 56 48 34 30 28 26 23 20 20 20 16 16 14 8 5 6 13 29 34 49 76 82 92 87 88 86
42 48 56 63 71 72 73 73 73 78 81 79 77 78 79 78 72 63 54 46 36 28 26 28 27 27 26 21 16 12 7 5 6 10 44 57 53 82 97 89 94 88 91
46 55 61 63 67 79 92 92 90 91 94 89 86 86 86 87 81 73 64 53 46 40 27 31 28 27 27 24 20 11 11 5 6 8 29 53 61 75 98 90 97 92 87
59 69 75 78 78 79 75 93 96 96 97 95 89 86 91 90 90 83 74 60 54 44 37 30 29 28 27 23 18 13 15 7 6 15 35 41 68 74 93 98 95 93 92
97 97 97 94 93 96 97 97 97 97 97 96 95 95 91 90 92 89 81 70 55 53 46 36 34 29 27 27 18 18 16 7 6 22 31 40 72 96 97 96 94 96 92
96 96 92 91 89 88 90 93 97 97 97 96 96 97 97 95 94 92 89 77 62 52 53 42 35 32 28 28 18 17 12 11 8 21 40 42 74 82 93 96 95 95 91
83 71 64 65 68 70 72 73 84 88 96 97 96 97 97 97 96 97 93 84 70 55 56 49 38 35 29 29 22 17 14 15 9 23 66 60 52 75 96 98 93 95 90
60 63 66 69 74 75 77 79 80 79 88 97 98 95 96 97 96 96 96 88 77 61 58 54 36 37 32 25 19 17 16 14 13 28 42 59 58 75 97 94 97 94 89
61 66 69 75 77 86 90 93 91 89 85 83 88 96 95 95 95 96 95 90 82 68 59 53 40 38 28 22 19 16 17 18 24 30 39 62 72 95 92 96 97 93 85
64 71 75 82 87 96 97 97 97 95 89 95 93 92 98 97 98 95 96 92 87 71 59 52 40 36 28 21 19 21 24 28 35 47 64 76 89 97 97 98 96 89 81
69 74 79 80 84 98 97 97 97 96 93 94 97 93 98 95 98 96 94 95 90 73 62 53 39 35 28 21 24 22 30 37 53 64 83 98 96 97 98 97 90 85 83
67 75 78 79 82 95 95 97 98 97 97 93 97 98 98 93 90 94 97 94 85 68 62 50 37 35 28 23 24 31 35 53 51 92 81 91 96 98 97 97 88 85 87
68 77 78 81 82 81 83 90 95 98 98 96 97 98 97 98 92 93 96 92 78 66 59 45 39 33 30 28 31 33 41 67 73 80 88 94 98 95 97 91 85 86 91
70 80 86 86 89 87 94 92 95 98 97 96 97 98 98 97 97 97 95 84 70 59 46 31 31 31 30 30 32 41 54 61 82 89 96 94 95 92 90 84 85 88 90
66 78 85 90 96 92 94 98 97 98 96 93 96 97 98 97 94 90 85 72 63 52 31 26 25 23 22 37 43 57 87 87 92 97 98 98 97 85 80 78 83 86 88